Time,TemperatureF,DewpointF,PressureIn,WindDirection,WindDirectionDegrees,WindSpeedMPH,WindSpeedGustMPH,Humidity,HourlyPrecipIn,Conditions,Clouds,dailyrainin,SoftwareType,DateUTC
2013-05-27 00:00:00,40.0,34.0,-100.00,North,-999,-999.0,-999.0,78,-99.99,,,-99.99,,2013-05-27 07:00:00,
2013-05-27 00:52:00,40.0,34.0,-100.00,North,-999,-999.0,-999.0,78,-99.99,,,-99.99,,2013-05-27 07:52:00,
2013-05-27 01:00:00,40.0,33.0,-100.00,SE,130,2.0,4.0,76,-99.99,,,-99.99,,2013-05-27 08:00:00,
2013-05-27 01:52:00,40.0,33.0,-100.00,SE,130,2.0,4.0,76,-99.99,,,-99.99,,2013-05-27 08:52:00,
2013-05-27 02:00:00,39.0,32.0,-100.00,SSE,150,2.0,3.0,76,-99.99,,,-99.99,,2013-05-27 09:00:00,
2013-05-27 02:53:00,39.0,32.0,-100.00,SSE,150,2.0,3.0,76,-99.99,,,-99.99,,2013-05-27 09:53:00,
2013-05-27 03:00:00,39.0,33.0,-100.00,ESE,119,2.0,3.0,78,-99.99,,,-99.99,,2013-05-27 10:00:00,
2013-05-27 03:52:00,39.0,33.0,-100.00,ESE,119,2.0,3.0,78,-99.99,,,-99.99,,2013-05-27 10:52:00,
2013-05-27 04:00:00,39.0,32.0,-100.00,SE,144,2.0,3.0,78,-99.99,,,0.00,,2013-05-27 11:00:00,
2013-05-27 04:52:00,39.0,32.0,-100.00,SE,144,2.0,3.0,78,-99.99,,,0.00,,2013-05-27 11:52:00,
2013-05-27 05:00:00,38.0,32.0,-100.00,SE,137,1.0,3.0,79,-99.99,,,-99.99,,2013-05-27 12:00:00,
2013-05-27 05:52:00,38.0,32.0,-100.00,SE,137,1.0,3.0,79,-99.99,,,-99.99,,2013-05-27 12:52:00,
2013-05-27 06:00:00,41.0,35.0,-100.00,North,-999,-999.0,-999.0,82,-99.99,,,0.00,,2013-05-27 13:00:00,
2013-05-27 06:52:00,41.0,35.0,-100.00,North,-999,-999.0,-999.0,82,-99.99,,,0.00,,2013-05-27 13:52:00,
2013-05-27 07:00:00,41.0,34.0,-100.00,ESE,109,2.0,4.0,76,-99.99,,,-99.99,,2013-05-27 14:00:00,
2013-05-27 07:52:00,41.0,34.0,-100.00,ESE,109,2.0,4.0,76,-99.99,,,-99.99,,2013-05-27 14:52:00,
2013-05-27 08:00:00,42.0,36.0,-100.00,ESE,121,2.0,4.0,81,-99.99,,,0.00,,2013-05-27 15:00:00,
2013-05-27 08:53:00,42.0,36.0,-100.00,ESE,121,2.0,4.0,81,-99.99,,,0.00,,2013-05-27 15:53:00,
2013-05-27 09:00:00,42.0,35.0,-100.00,SE,126,2.0,4.0,76,-99.99,,,-99.99,,2013-05-27 16:00:00,
2013-05-27 09:52:00,42.0,35.0,-100.00,SE,126,2.0,4.0,76,-99.99,,,-99.99,,2013-05-27 16:52:00,
2013-05-27 10:00:00,40.0,34.0,-100.00,ESE,123,4.0,7.0,80,-99.99,,,0.00,,2013-05-27 17:00:00,
2013-05-27 10:52:00,40.0,34.0,-100.00,ESE,123,4.0,7.0,80,-99.99,,,0.00,,2013-05-27 17:52:00,
2013-05-27 11:00:00,40.0,36.0,-100.00,ESE,121,5.0,8.0,86,-99.99,,,0.00,,2013-05-27 18:00:00,
2013-05-27 11:52:00,40.0,36.0,-100.00,ESE,121,5.0,8.0,86,-99.99,,,0.00,,2013-05-27 18:52:00,
2013-05-27 12:00:00,39.0,37.0,-100.00,SE,143,4.0,7.0,92,-99.99,,,0.00,,2013-05-27 19:00:00,
2013-05-27 12:52:00,39.0,37.0,-100.00,SE,143,4.0,7.0,92,-99.99,,,0.00,,2013-05-27 19:52:00,
2013-05-27 13:00:00,38.0,37.0,-100.00,East,79,4.0,7.0,95,-99.99,,,0.00,,2013-05-27 20:00:00,
2013-05-27 13:52:00,38.0,37.0,-100.00,East,79,4.0,7.0,95,-99.99,,,0.00,,2013-05-27 20:52:00,
2013-05-27 14:00:00,39.0,38.0,-100.00,ESE,104,3.0,6.0,97,-99.99,,,0.01,,2013-05-27 21:00:00,
2013-05-27 14:53:00,39.0,38.0,-100.00,ESE,104,3.0,6.0,97,-99.99,,,0.01,,2013-05-27 21:53:00,
2013-05-27 15:00:00,40.0,39.0,-100.00,SSE,149,3.0,6.0,95,-99.99,,,0.02,,2013-05-27 22:00:00,
2013-05-27 15:53:00,40.0,39.0,-100.00,SSE,149,3.0,6.0,95,-99.99,,,0.02,,2013-05-27 22:53:00,
2013-05-27 16:00:00,39.0,37.0,-100.00,SSE,161,3.0,6.0,95,-99.99,,,0.02,,2013-05-27 23:00:00,
2013-05-27 16:42:00,39.0,38.0,-100.00,SSE,161,3.0,6.0,95,-99.99,,,0.02,,2013-05-27 23:42:00,
2013-05-27 16:52:00,39.0,37.0,-100.00,SSE,161,3.0,6.0,95,-99.99,,,0.02,,2013-05-27 23:52:00,
2013-05-27 17:00:00,39.0,38.0,-100.00,ESE,106,3.0,6.0,96,-99.99,,,0.02,,2013-05-28 00:00:00,
2013-05-27 17:52:00,39.0,38.0,-100.00,ESE,106,3.0,6.0,96,-99.99,,,0.02,,2013-05-28 00:52:00,
2013-05-27 18:00:00,39.0,38.0,-100.00,SE,140,3.0,6.0,96,-99.99,,,0.02,,2013-05-28 01:00:00,
2013-05-27 18:42:00,39.0,38.0,-100.00,SE,140,3.0,6.0,96,-99.99,,,0.02,,2013-05-28 01:42:00,
2013-05-27 18:52:00,39.0,38.0,-100.00,SE,140,3.0,6.0,96,-99.99,,,0.02,,2013-05-28 01:52:00,
2013-05-27 19:00:00,40.0,39.0,-100.00,SE,133,2.0,4.0,97,-99.99,,,0.02,,2013-05-28 02:00:00,
2013-05-27 19:42:00,40.0,39.0,-100.00,SE,133,2.0,4.0,97,-99.99,,,0.02,,2013-05-28 02:42:00,
2013-05-27 19:52:00,40.0,39.0,-100.00,SE,133,2.0,4.0,97,-99.99,,,0.02,,2013-05-28 02:52:00,
2013-05-27 20:00:00,40.0,39.0,-100.00,SSE,153,1.0,3.0,98,-99.99,,,0.02,,2013-05-28 03:00:00,
2013-05-27 20:43:00,40.0,39.0,-100.00,SSE,153,1.0,3.0,98,-99.99,,,0.02,,2013-05-28 03:43:00,
2013-05-27 20:53:00,40.0,39.0,-100.00,SSE,153,1.0,3.0,98,-99.99,,,0.02,,2013-05-28 03:53:00,
2013-05-27 21:00:00,39.0,38.0,-100.00,East,87,2.0,4.0,98,-99.99,,,0.02,,2013-05-28 04:00:00,
2013-05-27 21:43:00,39.0,38.0,-100.00,East,87,2.0,4.0,98,-99.99,,,0.02,,2013-05-28 04:43:00,
2013-05-27 21:52:00,39.0,38.0,-100.00,East,87,2.0,4.0,98,-99.99,,,0.02,,2013-05-28 04:52:00,
2013-05-27 22:00:00,39.0,39.0,-100.00,ESE,105,2.0,4.0,99,-99.99,,,0.02,,2013-05-28 05:00:00,
2013-05-27 22:42:00,39.0,39.0,-100.00,ESE,105,2.0,4.0,99,-99.99,,,0.02,,2013-05-28 05:42:00,
2013-05-27 22:52:00,39.0,39.0,-100.00,ESE,105,2.0,4.0,99,-99.99,,,0.02,,2013-05-28 05:52:00,
2013-05-27 23:00:00,40.0,39.0,-100.00,SSE,153,2.0,3.0,99,-99.99,,,0.02,,2013-05-28 06:00:00,
2013-05-27 23:52:00,40.0,39.0,-100.00,SSE,153,2.0,3.0,99,-99.99,,,0.02,,2013-05-28 06:52:00,